Content
SEND FEEDBACK

Daily
Averages
Monthly
Summary
United States of America

SOUTH LAKE TAHOE, CALIFORNIA


Home > North America > United States > California
Elevation: 1908 meters     Latitude: 38 53N     Longitude: 119 59W

WEATHER
 
SELECT A DAY
Number of Records: 176,980;   Date Range: 1/1/95 - 10/20/14
 
SHARE

PRINT THIS DATA

[ ← Previous Day ]
WEATHER ALMANAC - 17 JANUARY, 2013
[ Next Day → ]
[ °F ]   °C
Weather ElementAverageHighLow
Temperature-5.2 °C7.2 °C (2:53 pm)-16.7 °C (7:53 am)
Dewpoint-13.1 °C-7.2 °C (3:53 pm)-20 °C (7:53 am)
Humidity58.4 %76 % (5:53 am)28 % (11:53 am)
Barometer1033.2 hPa1038.3 hPa (7:53 am)1028.8 hPa (2:53 pm)
Wind Speed4 km/h13 km/h (1:53 pm)
Weather ElementAverage
Visibility15.3 km
Wind DirectionENE (72.4 °)

Weather ElementTotal
Precipitation---
Heating Degree Days23.1 (Base 18.3)
Averaged from 21 records on 17 January, 2013
WEATHER CONDITIONS BREAKOUT
WIND DIRECTION BREAKOUT
WEATHER BY HOUR - 17 JANUARY, 2013
[ °F ]   °C
Local TimeTemperatureDewpointHumidityBarometerVisibilityWind DirectionWind SpeedGust SpeedPrecipitationEventsConditions
1:53 AM-11.7 °C-15.6 °C73 %1032.8 hPa12.9 kmSouth (190°)5.6 km/hClear
4:53 AM-13.9 °C-17.8 °C73 %1034.9 hPa16.1 kmSSW (200°)7.4 km/hClear
5:53 AM-15.6 °C-18.9 °C76 %1036.6 hPa16.1 kmCalmClear
6:53 AM-15.6 °C-18.9 °C76 %1037.3 hPa16.1 kmSW (220°)5.6 km/hClear
7:53 AM-16.7 °C-20 °C76 %1038.3 hPa9.7 kmSouth (190°)7.4 km/hHaze
8:53 AM-12.2 °C-16.1 °C73 %1037.3 hPa14.5 kmSouth (190°)5.6 km/hClear
9:53 AM-5 °C-12.2 °C58 %1035.2 hPa14.5 kmCalmClear
10:53 AM0 °C-12.2 °C40 %1033.5 hPa16.1 kmNNE (30°)5.6 km/hClear
11:53 AM5 °C-12.2 °C28 %1031.2 hPa16.1 kmCalmClear
12:53 PM6.7 °C-10 °C30 %1029.8 hPa16.1 kmNE (40°)11.1 km/hClear
1:53 PM6.7 °C-10 °C30 %1029.1 hPa16.1 kmNE (40°)13 km/hClear
2:53 PM7.2 °C-10 °C29 %1028.8 hPa16.1 kmNNE (30°)13 km/hClear
3:53 PM3.3 °C-7.2 °C47 %1030.1 hPa16.1 kmCalmClear
4:53 PM0.6 °C-8.3 °C52 %1031.8 hPa16.1 kmCalmClear
5:53 PM-3.3 °C-10 °C60 %1033.9 hPa16.1 kmCalmClear
6:53 PM-3.9 °C-10 °C63 %1033.9 hPa16.1 kmCalmClear
7:53 PM-5.6 °C-11.7 °C63 %1035.2 hPa16.1 kmCalmClear
8:53 PM-7.8 °C-12.2 °C71 %1034.9 hPa16.1 kmCalmClear
9:53 PM-8.3 °C-13.3 °C68 %1032.5 hPa16.1 kmSouth (190°)5.6 km/hClear
10:53 PM-9.4 °C-13.9 °C70 %1031.5 hPa14.5 kmCalmClear
11:53 PM-10.6 °C-15 °C71 %1030.5 hPa12.9 kmSSW (200°)5.6 km/hClear
Hourly data recorded from KTVL, located 0 kilometers away from South Lake Tahoe, California







STORIES FROM OUR PARTNERS